Hourly Data Report for October 16, 2013

All times are specified in Local Standard Time (LST). Add 1 hour to adjust for Daylight Saving Time where and when it is observed.

CAPE DORSET A
NUNAVUT

64°13'49.000" N
76°31'30.000" W
48.20 m
2400637
71366
YTE

Download Data

Hourly Data (October 2013)
Hourly Data Report for October 16, 2013
Temp Definition
°C
Dew Point Temp Definition
°C
Rel Hum Definition
%
Wind Dir Definition
10's deg

Wind Spd Definition
km/h
Visibility Definition
km
Stn Press Definition
kPa
Hmdx Definition


Wind Chill Definition


Weather Definition


TIME
00:00 Legend Double Dagger 0.5 -0.7 92 19 17 16.1 100.01     LegendNANA
01:00 Legend Double Dagger 0.5 -0.7 92 19 18 16.1 100.05     LegendNANA
02:00 Legend Double Dagger 0.4 -0.6 93 20 21 16.1 100.08     LegendNANA
03:00 Legend Double Dagger 0.4 -0.8 92 19 21 16.1 100.10     LegendNANA
04:00 Legend Double Dagger 0.4 -0.8 92 20 22 16.1 100.09     LegendNANA
05:00 Legend Double Dagger 0.4 -1.1 90 20 22 16.1 100.12     LegendNANA
06:00 Legend Double Dagger 0.3 -1.0 91 16 21 16.1 100.15     LegendNANA
07:00 Legend Double Dagger 0.4 -0.9 91 16 13 16.1 100.16     LegendNANA
08:00 Legend Double Dagger 0.4 -0.6 93 18 18 16.1 100.17     LegendNANA
09:00 Legend Double Dagger 0.6 -0.3 94 17 22 16.1 100.18     LegendNANA
10:00 Legend Double Dagger 0.8 -0.4 92 16 22 16.1 100.18     LegendNANA
11:00 Legend Double Dagger 0.6 -0.3 94 16 22 16.1 100.19     LegendNANA
12:00 Legend Double Dagger 0.6 0.0 96 17 22 12.9 100.20     LegendNANA
13:00 Legend Double Dagger 0.6 0.0 96 18 21 16.1 100.22     LegendNANA
14:00 Legend Double Dagger 0.7 0.0 95 18 21 16.1 100.24     LegendNANA
15:00 Legend Double Dagger 0.8 -0.1 94 18 13 16.1 100.26     LegendNANA
16:00 Legend Double Dagger 0.9 -0.1 93 18 18 16.1 100.29     LegendNANA
17:00 Legend Double Dagger 0.5 -0.2 95 18 18 8.1 100.32     LegendNANA
18:00 Legend Double Dagger 0.4 -0.3 95 18 15 16.1 100.33     LegendNANA
19:00 Legend Double Dagger 0.5 -0.4 94 14 18 16.1 100.34     LegendNANA
20:00 Legend Double Dagger 0.4 -0.9 91 15 28 16.1 100.32     LegendNANA
21:00 Legend Double Dagger 0.4 -1.4 88 13 28 16.1 100.31     LegendNANA
22:00 Legend Double Dagger 0.3 -1.5 88 13 35 16.1 100.25     LegendNANA
23:00 Legend Double Dagger 0.2 -1.0 92 12 28 16.1 100.22     LegendNANA

Notes on Data Quality.

Legend

  • E = Estimated
  • M = Missing
  • NA = Not Available
  • ‡ = Partner data that is not subject to review by the National Climate Archives
Date modified: